Regional Weather Roundup
Issued by NWS Jackson, KY

Home | Current Version | Previous Version | Text Only | Print | Product List | Glossary On
Versions: 1 2 3 4 5 6 7 8 9 10 11 12 13 14 15 16 17 18 19 20 21 22 23 24 25 26 27 28 29 30 31 32 33 34 35 36 37 38 39 40 41 42 43 44 45 46 47 48 49 50
589
ASUS43 KJKL 140810
RWRJKL

EAST KENTUCKY HOURLY WEATHER ROUNDUP
NATIONAL WEATHER SERVICE JACKSON KY
300 AM EST SUN FEB 14 2016

NOTE: "FAIR" INDICATES FEW OR NO CLOUDS BELOW 12,000 FEET WITH
NO SIGNIFICANT WEATHER AND/OR OBSTRUCTIONS TO VISIBILITY.

* THESE REPORTS ARE NOT UNDER NWS QUALITY CONTROL AND MAY NOT
  REPORT WEATHER SUCH AS PRECIPITATION AND FOG.

KYZ079-080-083-085-087-088-110-112-115-119-120-140900
...EASTERN KENTUCKY...

CITY           SKY/WX    TMP DP  RH WIND       PRES   REMARKS
JACKSON        CLOUDY    13   0  56 NE5       30.39F WCI   5
LONDON         CLOUDY    16   4  59 E3        30.40F
SOMERSET*      CLOUDY    18   5  57 E5        30.43F WCI  11
MONTICELLO*    CLOUDY    19   7  59 SE5       30.43S WCI  12
WILLIAMSBURG*  CLOUDY    16   7  67 CALM      30.40F
MIDDLESBORO*   CLOUDY    15  10  80 CALM      30.41S
HARLAN APT*      N/A     14   7  73 CALM      30.38F
HAZARD APT*    MOSUNNY  -26 -29  83 CALM      30.41S
BLACK MTN*       N/A      5  -6  61 S2          N/A
BIG SANDY*     CLOUDY    10   1  65 NE6       30.43R WCI   1
MOREHEAD APT*  CLOUDY    12  -2  52 E6        30.47S WCI   3
$$

KYZ035-036-041-042-044-050-067-078-099-140900
...CENTRAL KENTUCKY...

CITY           SKY/WX    TMP DP  RH WIND       PRES   REMARKS
MT STERLING*   CLOUDY    16   5  62 E6        30.45F WCI   7
DANVILLE*      CLOUDY    18   7  62 E5        30.43S WCI  11
RICHMOND*      CLOUDY    16   7  67 E5        30.42F WCI   9
LEXINGTON      CLOUDY    17   3  54 E7        30.43S WCI   8
FRANKFORT      MOCLDY    17   3  54 E6        30.44S WCI   9
$$

KYZ091>093-OHZ055-061-077-WVZ005-015-034-035-042-140900
...SOUTHERN OHIO/WEST VIRGINIA...

CITY           SKY/WX    TMP DP  RH WIND       PRES   REMARKS
COVINGTON      CLOUDY    14   6  70 E6        30.44F WCI   5
COLUMBUS       CLOUDY     6  -2  69 CALM      30.47S
DAYTON         CLOUDY     7   0  73 CALM      30.46F
WILMINGTON     CLOUDY     4  -2  76 NE3       30.45F
HUNTINGTON       N/A     10   2  69 CALM      30.48S
CHARLESTON       N/A      6   0  76 CALM      30.47R
PINEVILLE*       N/A     -2  -6  80 MISG      30.43S
BECKLEY          N/A      0  -7  72 CALM      30.30S
$$

VAZ002-007-008-TNZ017-027-036-066-071-140900
...SOUTHWEST VIRGINIA/EAST TENNESSEE...

CITY           SKY/WX    TMP DP  RH WIND       PRES   REMARKS
BRISTOL        CLOUDY    13   5  70 CALM      30.38S
KNOXVILLE      CLOUDY    22   6  50 NE8       30.38F WCI  12
OAK RIDGE      CLOUDY    22   6  50 NE3       30.42S
CROSSVILLE     CLOUDY    21   4  47 E6        30.33F WCI  13
NASHVILLE      CLOUDY    27   4  37 E10       30.38F WCI  17
$$

...KEY TO REMARKS...
VSB - VISIBILITY IN MILES
WCI - WIND CHILL INDEX
HX  - HEAT INDEX

$$




USA.gov is the U.S. government's official web portal to all federal, state and local government web resources and services.